Location: Unspecified
(0.0000°N, 0.0000°E)
Time: 11:15:07
(UTC+00:00)

Tiros 1 - Pass Details

Date: 28 November 2019
Orbit: 630 x 664 km, 48.4° (Epoch: 13 December)

Event Time Altitude Azimuth Distance (km) Brightness Sun altitude
Rises 07:06:51 0° 207° (SSW) 2,971 10.5 18.4°
Reaches altitude 10° 07:09:18 10° 200° (SSW) 2,053 9.8 18.9°
Maximum altitude 07:13:47 43° 129° (SE) 909 9.3 20.0°
Drops below altitude 10° 07:18:13 10° 58° (ENE) 2,025 10.3 21.0°
Sets 07:20:37 0° 51° (NE) 2,926 10.9 21.5°
